Regional Weather Roundup
Issued by NWS New Orleans/Baton Rouge, LA

Home | Current Version | Previous Version | Graphics & Text | Print | Product List | Glossary On
Versions: 1 2 3 4 5 6 7 8 9 10 11 12 13 14 15 16 17 18 19 20 21 22 23 24 25 26 27 28 29 30 31 32 33 34 35 36 37 38 39 40 41 42 43 44 45 46 47 48 49 50
278
ASUS44 KLIX 051901
RWRLIX
NEW ORLEANS REGIONAL WEATHER ROUNDUP
NATIONAL WEATHER SERVICE NEW ORLEANS LA
100 PM CST THU MAR 05 2015

NOTE: "FAIR" INDICATES FEW OR NO CLOUDS BELOW 12,000 FEET WITH NO
      SIGNIFICANT WEATHER AND/OR OBSTRUCTIONS TO VISIBILITY.
      SKY/WX - SKY CONDITION AND SIGNIFICANT WEATHER.
      TMP - AIR TEMPERATURE.     DP    - DEWPOINT TEMPERATURE.
      RH  - RELATIVE HUMIDITY.   PRES  - PRESSURE.
      HI  - HEAT INDEX.          WCI   - WIND CHILL INDEX.

*  THESE STATIONS ARE NOT NWS OR FAA STATIONS AND ARE NOT UNDER
   NWS QUALITY CONTROL.

LAZ038-040-048-061>063-065>067-069-052000-
SOUTHEAST LOUISIANA

CITY           SKY/WX    TMP DP  RH WIND       PRES   REMARKS
N.O. AUDUBON     N/A     44  39  81 MISG        N/A
N.O. INTL ARPT CLOUDY    42  36  79 N23G33    30.25F
N.O. LAKEFRONT CLOUDY    45  38  76 N26G33    30.25F
SLIDELL        CLOUDY    41  35  79 N21       30.25S
BATON ROUGE    LGT RAIN  35  29  78 N16G23    30.36R WCI  25
BOOTHVILLE     CLOUDY    50  44  80 N21G33    30.17S
BELLE CHASSE   CLOUDY    46  36  68 N15G30    30.20F
BOGALUSA*        N/A     38  32  81 N20G26    30.31S WCI  27
GALLIANO*      CLOUDY    49  41  73 N25G37    30.20F
NEW ROADS*     NOT AVBL
GONZALES*      NOT AVBL
HAMMOND*       NOT AVBL
HOUMA*         NOT AVBL
PORT FOURCHON* CLOUDY    48  43  81 N21G33    30.22S

$$

MSZ070-080>082-052000-
SOUTHERN MISSISSIPPI

CITY           SKY/WX    TMP DP  RH WIND       PRES   REMARKS
MCCOMB         MIX PCPN  32  28  85 N15G25    30.34S WCI  22
GULFPORT       CLOUDY    43  37  79 N18G33    30.22R
BILOXI         CLOUDY    45  39  81 N23G31    30.20S
PASCAGOULA     CLOUDY    46  37  71 N25G33    30.18F

$$

COASTAL OBSERVATIONS
LAKE AND NEARSHORE STATIONS

STATION/POSITION TIME  TEMP    WIND        PRES    WAVE
                       AIR SEA DIR/SP/G            HT/PER
                 (UTC) (F)     (DEG/KT/KT) (MB)    (FT/S)
PASCAGOULA       1819   48     360/ 22/ 28 1021.4
WAVELAND YACHT   1819   43 58  350/ 25/ 29 1022.9
GRAND ISLE       1819   50 66  360/ 25/ 32 1022.2
SOUTHWEST PASS   1819   54 45  360/ 25/ 28 1021.1
NEW CANAL        1819   43     360/ 23/ 28 1024.8
SHELL BEACH      1819   44 62  340/ 23/ 28 1023.2

OFFSHORE STATIONS

STATION/POSITION TIME  TEMP    WIND        PRES    WAVE
                       AIR SEA DIR/SP/G            HT/PER
                 (UTC) (F)     (DEG/KT/KT) (MB)    (FT/S)
64 S DAUPHIN ISL 1835   57 71  360/ 23/ 27 1020.1    7/ 6

$$




USA.gov is the U.S. government's official web portal to all federal, state and local government web resources and services.